Flag for Norway Weather past 2 weeks in Knarvik, Norway

Now
55 °F

Light rain. Overcast.


Feels Like: 54 °F
Forecast: 49 / 59 °F
Wind: 6 mph from Southeast

Location: Bergen / Florida

Current Time: Sep 20, 2014 at 12:02:07 PM

Latest Report: Sep 20, 2014 at 11:00 AM


Visibility: 6 mi

Pressure: 29.93 "Hg

Humidity: 85%

Dew point: 51 °F

Location of KnarvikLocation

Historic Weather in Knarvik — Graph

°F

Knarvik temperature yesterday

Maximum temperature yesterday: 68 °F (at 3:00 PM)
Minimum temperature yesterday: 47 °F (at 5:00 AM)
Average temperature yesterday: 57 °F

Past Weeks' High & Low Weather Summary

 TemperatureHumidityPressure
High73 °F (Sep 16, 5:00 PM)91% (Sep 15, 9:00 AM)30.48 "Hg (Sep 15, 9:00 AM)
Low47 °F (Sep 19, 5:00 AM)30% (Sep 16, 5:00 PM)29.74 "Hg (Sep 7, 7:00 AM)
Average58 °F74%30.15 "Hg
* Reported Sep 5 10:00 AM — Sep 20 10:00 AM, Knarvik, Weather by CustomWeather, © 2014

Note: Actual official high and low records may vary slightly from our data, if they occured in-between our weather recording intervals... More about our weather records

Advertising

Knarvik weather history for previous 24 hours

 ConditionsComfort  
Time TempWeatherWind HumidityBarometerVisibility
10:00 AM
Sep 20
55 °FCool.6 mph85%29.93 "HgN/A
9:00 AM57 °FCool.1 mph75%29.94 "HgN/A
8:00 AM59 °FOvercast.3 mph64%29.94 "Hg19 mi
7:00 AM59 °FCool.3 mph63%29.95 "HgN/A
6:00 AM58 °FCool.3 mph67%29.94 "HgN/A
5:00 AM56 °FCool.3 mph75%29.96 "HgN/A
4:00 AM54 °FCool.2 mph79%29.98 "HgN/A
3:00 AM55 °FCool.2 mph78%29.98 "HgN/A
2:00 AM56 °FCool.2 mph75%29.98 "HgN/A
1:00 AM56 °FCool.3 mph73%29.99 "HgN/A
12:00 AM56 °FCool.3 mph75%30.00 "HgN/A
10:00 PM
Sep 19
57 °FCool.1 mph71%30.02 "HgN/A
9:00 PM58 °FCool.1 mph69%30.02 "HgN/A
8:00 PM60 °FOvercast.1 mph65%30.01 "Hg19 mi
7:00 PM64 °FMild.1 mph60%30.01 "HgN/A
6:00 PM65 °FMild.1 mph51%30.03 "HgN/A
5:00 PM66 °FOvercast.2 mph50%30.03 "Hg25 mi
4:00 PM68 °FMild.1 mph47%30.03 "HgN/A
3:00 PM68 °FMild.2 mph44%30.04 "HgN/A
2:00 PM67 °FOvercast.1 mph49%30.05 "Hg34 mi
1:00 PM65 °FMild.1 mph51%30.06 "HgN/A
12:00 PM64 °FMild.1 mph55%30.06 "HgN/A
Weather by CustomWeather, © 2014

See weather overviewHow to use our weather pages